Stavanger, Norway

2:31 PM CEST on August 25, 2016 (GMT +0200)
Sola

Weather History for ENZV - November, 2012

Change the Weather History Date:

Sunday, November 18, 2012

  Actual Average Record
Temperature  
Mean Temperature 44 °F -  
Max Temperature 46 °F 41 °F 51 °F (2003)
Min Temperature 41 °F 33 °F 23 °F (1998)
Degree Days  
Heating Degree Days 22    
Moisture  
Dew Point 36 °F    
Average Humidity 71    
Maximum Humidity 88    
Minimum Humidity 57    
Precipitation  
Precipitation 0.00 in 0.16 in - ()
Sea Level Pressure  
Sea Level Pressure 29.67 in    
Wind  
Wind Speed 10 mph ()    
Max Wind Speed 21 mph    
Max Gust Speed -    
Visibility 7.0 miles    
Events Rain    
Averages and records for this station are not official NWS values.
T = Trace of Precipitation, MM = Missing Value Source: Averaged Metar Reports

Daily Weather History Graph

Daily Weather History Graph

Search for Another Location

Airport or City:

Trip Planner

Search our weather history database for the weather conditions in past years. The results will help you decide how hot, cold, wet, or windy it might be!

Date:

Astronomy

Nov. 18, 2012 Rise Set
Actual Time 8:36 AM CET 4:08 PM CET
Civil Twilight 7:48 AM CET 4:55 PM CET
Nautical Twilight 6:58 AM CET 5:46 PM CET
Astronomical Twilight 6:10 AM CET 6:34 PM CET
Moon 12:41 PM CET (11/18) 9:26 PM CET (11/18)
Length of Visible Light 9h 07m
Length of Day
7h 31m
Waxing Crescent, 27% of the Moon is Illuminated
Nov 18
Waxing Crescent
Nov 20
First Quarter
Nov 28
Full
Dec 6
Last Quarter
Dec 13
New

Hourly Weather History & Observations

Time (CET) Temp. Windchill Dew Point Humidity Pressure Visibility Wind Dir Wind Speed Gust Speed Precip Events Conditions
12:20 AM 46.4 °F 41.9 °F 42.8 °F 87% 29.56 in 6.2 mi SSW 9.2 mph - N/A   Mostly Cloudy
12:50 AM 44.6 °F 40.7 °F 41.0 °F 87% 29.56 in 6.2 mi SSW 6.9 mph - N/A   Scattered Clouds
1:00 AM 44 °F - 42 °F 88% 29.57 in 15 mi SSW 8.9 mph - -   Clear
1:50 AM 44.6 °F 40.2 °F 39.2 °F 81% 29.56 in 6.2 mi SW 8.1 mph - N/A   Scattered Clouds
2:50 AM 46.4 °F 42.4 °F 37.4 °F 71% 29.56 in 6.2 mi SSW 8.1 mph - N/A   Scattered Clouds
3:50 AM 44.6 °F 39.2 °F 39.2 °F 81% 29.56 in 6.2 mi SW 10.4 mph - N/A   Scattered Clouds
4:50 AM 44.6 °F 38.4 °F 35.6 °F 71% 29.56 in 6.2 mi WSW 12.7 mph - N/A   Mostly Cloudy
5:50 AM 44.6 °F 38.8 °F 37.4 °F 76% 29.56 in 6.2 mi SSW 11.5 mph - N/A   Mostly Cloudy
6:20 AM 44.6 °F 39.7 °F 37.4 °F 76% 29.56 in 6.2 mi SW 9.2 mph - N/A   Scattered Clouds
6:50 AM 44.6 °F 38.8 °F 37.4 °F 76% 29.56 in 6.2 mi SW 11.5 mph - N/A   Scattered Clouds
7:00 AM 45 °F - 35 °F 57% 29.60 in 19 mi SW 15.7 mph - -   Clear
7:20 AM 44.6 °F 39.2 °F 35.6 °F 71% 29.59 in 6.2 mi SW 10.4 mph - N/A   Scattered Clouds
7:50 AM 44.6 °F 38.8 °F 35.6 °F 71% 29.59 in 6.2 mi WSW 11.5 mph - N/A   Scattered Clouds
8:20 AM 44.6 °F 39.2 °F 35.6 °F 71% 29.59 in 6.2 mi WSW 10.4 mph - N/A   Mostly Cloudy
8:50 AM 44.6 °F 36.6 °F 33.8 °F 66% 29.62 in 6.2 mi WSW 19.6 mph - N/A Rain Rain Showers
9:20 AM 42.8 °F 37.0 °F 32.0 °F 66% 29.62 in 6.2 mi SW 10.4 mph - N/A   Scattered Clouds
9:50 AM 44.6 °F 36.6 °F 33.8 °F 66% 29.62 in 6.2 mi WSW 19.6 mph - N/A Rain Light Rain Showers
10:20 AM 44.6 °F 39.2 °F 35.6 °F 71% 29.62 in 6.2 mi WSW 10.4 mph - N/A Rain Light Rain Showers
10:50 AM 44.6 °F 37.4 °F 33.8 °F 66% 29.62 in 6.2 mi WSW 16.1 mph - N/A   Scattered Clouds
11:20 AM 46.4 °F 40.7 °F 33.8 °F 62% 29.65 in 6.2 mi WSW 12.7 mph - N/A   Scattered Clouds
11:50 AM 42.8 °F 34.0 °F 37.4 °F 81% 29.65 in 6.2 mi West 20.7 mph - N/A Rain Rain Showers
12:20 PM 44.6 °F 39.7 °F 35.6 °F 71% 29.65 in 6.2 mi WSW 9.2 mph - N/A   Scattered Clouds
12:50 PM 46.4 °F 40.1 °F 35.6 °F 66% 29.68 in 6.2 mi WSW 15.0 mph - N/A   Scattered Clouds
1:00 PM 46 °F - 37 °F 61% 29.69 in 14 mi WSW 11.2 mph - -   Clear
1:20 PM 46.4 °F 40.7 °F 35.6 °F 66% 29.68 in 6.2 mi WSW 12.7 mph - N/A   Scattered Clouds
1:50 PM 44.6 °F 39.2 °F 37.4 °F 76% 29.68 in 6.2 mi West 10.4 mph - N/A   Scattered Clouds
2:20 PM 46.4 °F 40.4 °F 33.8 °F 62% 29.68 in 6.2 mi WSW 13.8 mph - N/A   Scattered Clouds
2:50 PM 46.4 °F 40.4 °F 33.8 °F 62% 29.68 in 6.2 mi SW 13.8 mph - N/A Rain Rain Showers
3:20 PM 46.4 °F 40.1 °F 33.8 °F 62% 29.68 in 6.2 mi WSW 15.0 mph - N/A   Mostly Cloudy
3:50 PM 46.4 °F 40.4 °F 33.8 °F 62% 29.68 in 6.2 mi WSW 13.8 mph - N/A   Scattered Clouds
4:20 PM 44.6 °F 38.4 °F 33.8 °F 66% 29.68 in 6.2 mi WSW 12.7 mph - N/A   Mostly Cloudy
4:50 PM 44.6 °F 38.8 °F 35.6 °F 71% 29.71 in 6.2 mi WSW 11.5 mph - N/A   Scattered Clouds
5:20 PM 44.6 °F 37.8 °F 37.4 °F 76% 29.71 in 6.2 mi SW 15.0 mph - N/A   Scattered Clouds
5:50 PM 44.6 °F 38.1 °F 35.6 °F 71% 29.71 in 6.2 mi West 13.8 mph - N/A   Mostly Cloudy
6:20 PM 44.6 °F 39.7 °F 35.6 °F 71% 29.74 in 6.2 mi WSW 9.2 mph - N/A   Mostly Cloudy
6:50 PM 42.8 °F 37.0 °F 35.6 °F 76% 29.74 in 6.2 mi West 10.4 mph - N/A Rain Rain Showers
7:00 PM 45 °F - 37 °F 66% 29.77 in 14 mi West 8.9 mph - - Rain Rain
7:20 PM 46.4 °F 40.7 °F 37.4 °F 71% 29.77 in 6.2 mi WSW 12.7 mph - N/A   Mostly Cloudy
7:50 PM 46.4 °F 40.1 °F 35.6 °F 66% 29.77 in 6.2 mi WSW 15.0 mph - N/A   Scattered Clouds
8:20 PM 46.4 °F 41.1 °F 35.6 °F 66% 29.77 in 6.2 mi WSW 11.5 mph - N/A   Scattered Clouds
8:50 PM 44.6 °F 39.7 °F 35.6 °F 71% 29.77 in 6.2 mi WSW 9.2 mph - N/A   Scattered Clouds
9:20 PM 44.6 °F 37.8 °F 37.4 °F 76% 29.77 in 6.2 mi West 15.0 mph - N/A Rain Light Rain Showers
9:50 PM 44.6 °F 40.7 °F 37.4 °F 76% 29.80 in 6.2 mi SW 6.9 mph - N/A   Mostly Cloudy
10:20 PM 44.6 °F 38.4 °F 35.6 °F 71% 29.80 in 6.2 mi SW 12.7 mph - N/A   Mostly Cloudy
10:50 PM 44.6 °F 39.2 °F 35.6 °F 71% 29.80 in 6.2 mi WSW 10.4 mph - N/A   Mostly Cloudy
11:20 PM 44.6 °F 38.4 °F 37.4 °F 76% 29.80 in 6.2 mi SW 12.7 mph - N/A   Mostly Cloudy
11:50 PM 42.8 °F 38.6 °F 35.6 °F 76% 29.80 in 6.2 mi SSW 6.9 mph - N/A   Mostly Cloudy